Marion Regional, IL

5:56 PM CDT on August 24, 2019 (GMT -0500)
Williamson County Regional

Weather History for KMWA - July, 2019

Change the Weather History Date:

Monday, July 22, 2019

  Actual Average Record
Temperature  
Mean Temperature 71 °F -  
Max Temperature 78 °F 88 °F 101 °F (1983)
Min Temperature 65 °F 66 °F 55 °F (1970)
Cooling Degree Days 6    
Growing Degree Days 21 (Base 50)    
Moisture  
Dew Point 69 °F    
Average Humidity 90    
Maximum Humidity 100    
Minimum Humidity 65    
Precipitation  
Precipitation 0.04 in - - ()
Sea Level Pressure  
Sea Level Pressure 29.98 in    
Wind  
Wind Speed 4 mph (NNE)    
Max Wind Speed 14 mph    
Max Gust Speed -    
Visibility 10 miles    
Events Rain    
Averages and records for this station are not official NWS values.
T = Trace of Precipitation, MM = Missing Value Source: NWS Daily Summary

Daily Weather History Graph

Daily Weather History Graph

Search for Another Location

Airport or City:

Astronomy

Jul. 22, 2019 Rise Set
Actual Time 5:51 AM CDT 8:13 PM CDT
Civil Twilight 5:21 AM CDT 8:43 PM CDT
Nautical Twilight 4:44 AM CDT 9:19 PM CDT
Astronomical Twilight 4:03 AM CDT 10:00 PM CDT
Moon 11:39 PM CDT (7/22) 11:02 AM CDT (7/22)
Length of Visible Light 15h 21m
Length of Day
14h 22m
Waning Gibbous, 72% of the Moon is Illuminated
Jul 22
Waning Gibbous
Jul 24
Last Quarter
Jul 31
New
Aug 7
First Quarter
Aug 15
Full

Hourly Weather History & Observations

Time (CDT) Temp. Dew Point Humidity Pressure Visibility Wind Dir Wind Speed Gust Speed Precip Events Conditions
12:15 AM 73.8 °F 72.7 °F 96% 29.94 in 10.0 mi East 3.5 mph - N/A   Clear
12:35 AM 73.6 °F 72.9 °F 98% 29.94 in 10.0 mi SE 3.5 mph - N/A   Clear
12:55 AM 73.4 °F 72.7 °F 98% 29.94 in 10.0 mi Calm Calm - N/A   Clear
1:15 AM 73.4 °F 72.5 °F 97% 29.93 in 10.0 mi South 3.5 mph - N/A   Clear
1:35 AM 73.0 °F 72.0 °F 96% 29.92 in 10.0 mi SE 3.5 mph - N/A   Clear
1:55 AM 72.9 °F 72.0 °F 97% 29.92 in 10.0 mi SSE 5.8 mph - N/A   Clear
2:15 AM 72.5 °F 71.8 °F 98% 29.93 in 10.0 mi South 5.8 mph - N/A   Scattered Clouds
2:35 AM 72.3 °F 71.8 °F 98% 29.93 in 10.0 mi Calm Calm - N/A   Clear
2:55 AM 71.8 °F 71.8 °F 100% 29.92 in 10.0 mi Calm Calm - N/A   Clear
3:15 AM 71.6 °F 71.6 °F 100% 29.91 in 10.0 mi Calm Calm - N/A   Clear
3:35 AM 71.6 °F 71.6 °F 100% 29.90 in 10.0 mi Calm Calm - N/A   Clear
3:55 AM 72.7 °F 72.5 °F 99% 29.90 in 10.0 mi Calm Calm - N/A   Clear
4:15 AM 73.0 °F 72.5 °F 98% 29.90 in 10.0 mi SW 3.5 mph - N/A   Clear
4:35 AM 73.4 °F 72.5 °F 97% 29.90 in 10.0 mi SSW 4.6 mph - N/A   Scattered Clouds
4:55 AM 73.0 °F 72.7 °F 99% 29.90 in 10.0 mi South 5.8 mph - N/A   Mostly Cloudy
5:15 AM 73.0 °F 72.5 °F 98% 29.90 in 10.0 mi Calm Calm - N/A   Scattered Clouds
5:55 AM 73.2 °F 72.5 °F 98% 29.93 in 10.0 mi SW 3.5 mph - N/A   Mostly Cloudy
6:15 AM 73.4 °F 72.9 °F 98% 29.93 in 10.0 mi North 3.5 mph - N/A   Overcast
6:35 AM 73.4 °F 73.0 °F 99% 29.93 in 10.0 mi Calm Calm - 0.04 in   Overcast
6:45 AM 73.4 °F 73.4 °F 100% 29.93 in 10.0 mi WNW 6.9 mph - N/A   Scattered Clouds
7:45 AM 75.2 °F 73.4 °F 94% 29.95 in 10.0 mi North 11.5 mph - N/A   Overcast
8:45 AM 75.2 °F 73.4 °F 94% 29.95 in 10.0 mi East 8.1 mph - N/A   Overcast
9:45 AM 73.4 °F 71.6 °F 94% 29.97 in 10.0 mi NE 6.9 mph - N/A   Overcast
10:45 AM 73.4 °F 71.6 °F 94% 29.96 in 10.0 mi NNE 12.7 mph - N/A   Overcast
11:45 AM 71.6 °F 71.6 °F 100% 29.98 in 7.0 mi North 13.8 mph - N/A   Overcast
12:45 PM 71.6 °F 69.8 °F 94% 29.99 in 7.0 mi NNE 9.2 mph - N/A Rain Light Rain
1:45 PM 71.6 °F 68.0 °F 88% 30.00 in 10.0 mi North 11.5 mph - N/A   Overcast
2:45 PM 73.4 °F 68.0 °F 83% 30.00 in 10.0 mi North 11.5 mph - N/A   Overcast
3:45 PM 75.2 °F 64.4 °F 69% 29.99 in 10.0 mi North 11.5 mph - N/A   Mostly Cloudy
4:45 PM 77.0 °F 64.4 °F 65% 30.00 in 10.0 mi NNW 11.5 mph - N/A   Mostly Cloudy
5:45 PM 77.0 °F 64.4 °F 65% 29.99 in 10.0 mi North 11.5 mph - N/A   Scattered Clouds
6:45 PM 77.0 °F 64.4 °F 65% 29.99 in 10.0 mi North 11.5 mph - N/A   Scattered Clouds
6:47 PM 77.0 °F 64.4 °F 65% 30.00 in 10.0 mi NNE 13.8 mph - N/A   Partly Cloudy
7:15 PM 76.1 °F 63.7 °F 65% 30.01 in 10.0 mi North 6.9 mph - N/A   Clear
7:35 PM 74.1 °F 64.8 °F 72% 30.01 in 10.0 mi North 4.6 mph - N/A   Clear
7:55 PM 72.3 °F 65.5 °F 79% 30.01 in 10.0 mi Calm Calm - N/A   Clear
8:15 PM 71.1 °F 65.8 °F 84% 30.02 in 10.0 mi Calm Calm - N/A   Scattered Clouds
8:35 PM 70.5 °F 65.5 °F 84% 30.03 in 10.0 mi Calm Calm - N/A   Scattered Clouds
8:55 PM 69.6 °F 65.3 °F 86% 30.04 in 10.0 mi Calm Calm - N/A   Clear
9:15 PM 69.1 °F 64.4 °F 85% 30.04 in 10.0 mi NNE 5.8 mph - N/A   Clear
9:35 PM 68.7 °F 64.2 °F 86% 30.05 in 10.0 mi NNE 4.6 mph - N/A   Clear
9:55 PM 67.5 °F 64.2 °F 89% 30.05 in 10.0 mi NNE 3.5 mph - N/A   Clear
10:15 PM 66.6 °F 64.2 °F 92% 30.06 in 10.0 mi Calm Calm - N/A   Clear
10:35 PM 66.6 °F 65.1 °F 95% 30.06 in 10.0 mi Calm Calm - N/A   Clear
10:55 PM 67.1 °F 63.7 °F 89% 30.07 in 10.0 mi Calm Calm - N/A   Clear
11:15 PM 65.5 °F 64.0 °F 95% 30.07 in 10.0 mi Calm Calm - N/A   Clear
11:35 PM 66.4 °F 63.5 °F 90% 30.07 in 10.0 mi NNE 4.6 mph - N/A   Clear
11:55 PM 65.8 °F 63.0 °F 90% 30.08 in 10.0 mi NNE 6.9 mph - N/A   Clear